Weather observations for the past three days for
Caldwell, Essex County Airport
Imperial (Metric)
Date Time (edt) Wind (mph) Vis. (mi.) Weather Sky Cond. Temperature (ºF) Relative Humidity Wind Chill (°F) Heat Index (°F) Pressure Precipitation (in)
Air Dwpt 6 hour altimeter (in) sea level (mb) 1 hr 3 hr 6 hr
Max. Min.
23 00:53 NE 3 10.00 Fair CLR 75.9 70 82% 77 29.92 1013.4
22 23:53 Calm 10.00 Light Rain FEW080 75.9 69.1 79% 77 29.92 1013.4
22 22:53 Calm 10.00 A Few Clouds FEW045 77 69.1 77% 79 29.94 1014.3
22 21:53 Calm 10.00 A Few Clouds FEW035 FEW110 78.1 69.1 74% 80 29.95 1014.5
22 20:53 Calm 10.00 Partly Cloudy FEW048 SCT110 80.1 72 76% 84 29.95 1014.6
22 19:53 SE 5 10.00 A Few Clouds FEW036 FEW095 FEW110 81 70 96.1 81 69% 84 29.93 1013.7 0.01 0.01
22 18:53 E 6 10.00 Fair CLR 84.9 68 57% 88 29.92 1013.6
22 15:53 SW 9 10.00 Mostly Cloudy SCT055 SCT070 BKN110 93 70 47% 99 29.93 1013.8
22 14:53 Vrbl 5 10.00 Fair CLR 95 68 41% 100 29.93 1013.9
22 13:53 NW 8 10.00 Thunderstorm in Vicinity FEW060 95 66.9 96.1 80.1 40% 99 29.96 1014.8
22 12:53 S 5 10.00 A Few Clouds FEW048 93 69.1 46% 98 29.97 1015.2
22 11:53 NW 6 10.00 Fair CLR 91.9 70 49% 98 30 1016.1
22 10:53 Calm 10.00 Fair CLR 89.1 69.1 52% 94 30.02 1016.7
22 09:53 S 3 10.00 A Few Clouds FEW110 84.9 69.1 59% 89 30.04 1017.5
22 08:53 Vrbl 5 10.00 Fair CLR 82 69.1 65% 85 30.04 1017.6
22 07:53 Calm 10.00 Fair CLR 80.1 70 80.1 75 71% 83 30.05 1018.0
22 06:53 Calm 10.00 Fair CLR 78.1 70 76% 80 30.06 1018.3
22 05:53 Calm 10.00 Fair CLR 75 70 84% 75 30.06 1018.1
22 04:53 Calm 10.00 Fair CLR 75.9 69.1 79% 77 30.06 1018.2
22 03:53 Calm 10.00 Fair CLR 77 69.1 77% 79 30.06 1018.3
22 02:53 Calm 10.00 Fair CLR 79 69.1 72% 82 30.07 1018.5
22 01:53 Calm 10.00 Fair CLR 79 69.1 82.9 78.1 72% 82 30.08 1018.9
22 00:53 Calm 10.00 Fair CLR 79 69.1 72% 82 30.09 1019.1
21 23:53 E 5 10.00 A Few Clouds FEW080 79 69.1 72% 82 30.11 1020.1
21 22:53 N 3 10.00 Fair CLR 79 70 74% 82 30.1 1019.7
21 21:53 E 3 10.00 Fair CLR 79 70 74% 82 30.1 1019.6
21 20:53 NE 9 10.00 Fair CLR 81 69.1 67% 84 30.09 1019.4
21 19:53 E 10 10.00 Fair CLR 82.9 69.1 97 82.9 63% 87 30.08 1019.0
21 18:53 Vrbl 7 G 22 10.00 Mostly Cloudy BKN070 86 69.1 57% 90 30.09 1019.2
21 17:53 Vrbl 6 10.00 A Few Clouds FEW060 95 63 35% 96 30.04 1017.7
21 16:53 SW 6 10.00 A Few Clouds FEW060 95 64 36% 97 30.05 1017.9
21 15:53 Vrbl 7 10.00 Fair CLR 96.1 64 35% 98 30.06 1018.3
21 14:53 SW 9 10.00 A Few Clouds FEW060 96.1 64.9 36% 99 30.1 1019.4
21 13:53 Vrbl 6 10.00 Partly Cloudy SCT055 95 66 96.1 79 39% 98 30.11 1019.8
21 12:53 S 9 10.00 Fair CLR 93 68 44% 97 30.13 1020.8
21 11:53 Calm 10.00 Fair CLR 91.9 68 46% 96 30.16 1021.5
21 10:53 S 6 10.00 Fair CLR 89.1 68 50% 93 30.16 1021.7
21 09:53 Vrbl 3 10.00 Fair CLR 87.1 66.9 51% 90 30.18 1022.4
21 08:53 Calm 10.00 Fair CLR 82.9 64.9 55% 85 30.2 1022.9
21 07:53 Calm 10.00 A Few Clouds FEW070 80.1 64 80.1 75 58% 82 30.2 1022.8
21 06:53 Calm 10.00 Fair CLR 75.9 63 64% 78 30.2 1022.8
21 05:53 Vrbl 3 10.00 Fair CLR 75.9 63 64% 78 30.19 1022.8
21 04:53 Vrbl 3 10.00 Fair CLR 75.9 63 64% 78 30.2 1022.9
21 03:53 Vrbl 3 10.00 Fair CLR 77 63 62% 79 30.19 1022.8
21 02:53 SW 3 10.00 Fair CLR 78.1 63 60% 80 30.2 1022.9
21 01:53 Calm 10.00 Fair CLR 79 63 90 79 58% 81 30.21 1023.2
21 00:53 Calm 10.00 Fair CLR 80.1 64.9 60% 82 30.21 1023.4
20 23:53 Calm 10.00 Fair CLR 82 64.9 56% 84 30.22 1023.5
20 22:53 Calm 10.00 Fair CLR 82.9 64.9 55% 85 30.22 1023.7
20 21:53 Calm 10.00 Fair CLR 84.9 64 50% 86 30.22 1023.6
20 20:53 Calm 10.00 Fair CLR 88 64 45% 89 30.2 1022.9
20 19:53 SW 3 10.00 Fair CLR 90 63 95 90 41% 91 30.19 1022.6
20 18:53 Vrbl 5 10.00 Fair CLR 91.9 63 38% 93 30.2 1022.8
20 17:53 Vrbl 7 10.00 Fair CLR 93 62.1 36% 94 30.2 1023.1
20 16:53 SW 9 10.00 Fair CLR 93.9 63 36% 95 30.22 1023.6
20 15:53 Vrbl 5 10.00 Fair CLR 93.9 62.1 35% 95 30.24 1024.2
20 13:53 Vrbl 6 10.00 Fair CLR 93 61 93 75 34% 93 30.27 1025.5
20 12:53 Vrbl 7 10.00 Fair CLR 91 63 39% 92 30.29 1026.0
20 11:53 Vrbl 6 10.00 Fair CLR 90 64 42% 91 30.3 1026.4
20 10:53 Vrbl 5 10.00 Fair CLR 87.1 66 50% 89 30.31 1026.8
20 09:53 SW 3 10.00 Fair CLR 82 64.9 56% 84 30.32 1027.0
20 08:53 Vrbl 3 10.00 Fair CLR 79 63 58% 81 30.32 1027.1
20 07:53 SW 5 10.00 Fair CLR 75 61 75 72 62% 77 30.32 1027.1
20 06:53 Vrbl 3 10.00 Fair CLR 73 60.1 64% 30.32 1026.9
20 05:53 SW 3 10.00 Fair CLR 72 59 64% 30.31 1026.7
20 04:53 Calm 10.00 Fair CLR 72 59 64% 30.3 1026.5
20 03:53 S 5 10.00 Fair CLR 73 59 62% 30.3 1026.3
20 02:53 SW 5 10.00 Fair CLR 73.9 60.1 62% 30.3 1026.4
20 01:53 Vrbl 3 10.00 Fair CLR 75 60.1 86 75 60% 77 30.31 1026.6
Date Time (edt) Wind (mph) Vis. (mi.) Weather Sky Cond. Air Dwpt Max. Min. Relative Humidity Wind Chill (°F) Heat Index (°F) altimeter (in) sea level (mb) 1 hr 3 hr 6 hr
6 hour
Temperature (ºF) Pressure Precipitation (in)